Time,TemperatureF,DewpointF,PressureIn,WindDirection,WindDirectionDegrees,WindSpeedMPH,WindSpeedGustMPH,Humidity,HourlyPrecipIn,Conditions,Clouds,dailyrainin,SoftwareType,DateUTC
2013-02-15 00:00:00,43.5,42.7,30.56,East,80,0.0,0.0,97,0.00,,---,0.03,VWS V14.01,2013-02-15 08:00:00,
2013-02-15 00:05:00,43.5,42.7,30.56,East,80,0.0,0.0,97,0.00,,---,0.00,VWS V14.01,2013-02-15 08:05:00,
2013-02-15 00:10:00,43.5,42.7,30.56,East,80,0.0,0.0,97,0.00,,---,0.00,VWS V14.01,2013-02-15 08:10:00,
2013-02-15 00:15:00,43.5,42.7,30.56,East,80,0.0,0.0,97,0.00,,---,0.00,VWS V14.01,2013-02-15 08:15:00,
2013-02-15 00:20:00,43.4,42.6,30.56,East,80,0.0,0.0,97,0.00,,---,0.00,VWS V14.01,2013-02-15 08:20:00,
2013-02-15 00:25:00,43.5,42.7,30.56,East,80,0.0,0.0,97,0.00,,---,0.00,VWS V14.01,2013-02-15 08:25:00,
2013-02-15 00:30:00,43.5,42.7,30.56,East,80,0.0,0.0,97,0.00,,---,0.00,VWS V14.01,2013-02-15 08:30:00,
2013-02-15 00:35:00,43.5,42.7,30.56,East,80,0.0,0.0,97,0.00,,---,0.00,VWS V14.01,2013-02-15 08:35:00,
2013-02-15 00:40:00,43.5,42.7,30.56,East,80,0.0,0.0,97,0.00,,---,0.00,VWS V14.01,2013-02-15 08:40:00,
2013-02-15 00:45:00,43.4,42.6,30.56,East,80,0.0,0.0,97,0.00,,---,0.00,VWS V14.01,2013-02-15 08:45:00,
2013-02-15 00:50:00,43.5,42.7,30.56,East,80,0.0,0.0,97,0.00,,---,0.00,VWS V14.01,2013-02-15 08:50:00,
2013-02-15 00:55:00,43.4,42.6,30.56,East,80,0.0,0.0,97,0.00,,---,0.00,VWS V14.01,2013-02-15 08:55:00,
2013-02-15 01:00:00,43.4,42.6,30.56,East,80,0.0,0.0,97,0.00,,---,0.00,VWS V14.01,2013-02-15 09:00:00,
2013-02-15 01:05:00,43.4,42.6,30.56,East,80,0.0,0.0,97,0.00,,---,0.00,VWS V14.01,2013-02-15 09:05:00,
2013-02-15 01:10:00,43.4,42.6,30.56,East,80,0.0,0.0,97,0.00,,---,0.00,VWS V14.01,2013-02-15 09:10:00,
2013-02-15 01:15:00,43.4,42.6,30.56,East,80,0.0,0.0,97,0.00,,---,0.00,VWS V14.01,2013-02-15 09:15:00,
2013-02-15 01:20:00,43.4,42.6,30.56,East,80,0.0,0.0,97,0.00,,---,0.00,VWS V14.01,2013-02-15 09:20:00,
2013-02-15 01:25:00,43.4,42.6,30.56,East,80,0.0,0.0,97,0.00,,---,0.00,VWS V14.01,2013-02-15 09:25:00,
2013-02-15 01:30:00,43.4,42.6,30.56,East,80,0.0,0.0,97,0.00,,---,0.00,VWS V14.01,2013-02-15 09:30:00,
2013-02-15 01:35:00,43.4,42.6,30.56,East,80,0.0,0.0,97,0.00,,---,0.00,VWS V14.01,2013-02-15 09:35:00,
2013-02-15 01:40:00,43.4,42.6,30.56,East,80,0.0,0.0,97,0.00,,---,0.00,VWS V14.01,2013-02-15 09:40:00,
2013-02-15 01:45:00,43.4,42.6,30.55,East,80,0.0,0.0,97,0.00,,---,0.00,VWS V14.01,2013-02-15 09:45:00,
2013-02-15 01:50:00,43.4,42.6,30.55,East,80,0.0,0.0,97,0.00,,---,0.00,VWS V14.01,2013-02-15 09:50:00,
2013-02-15 01:55:00,43.4,42.6,30.55,East,80,0.0,0.0,97,0.00,,---,0.00,VWS V14.01,2013-02-15 09:55:00,
2013-02-15 02:00:00,43.4,42.6,30.55,East,80,0.0,0.0,97,0.00,,---,0.00,VWS V14.01,2013-02-15 10:00:00,
2013-02-15 02:05:00,43.4,42.9,30.55,East,80,0.0,0.0,98,0.00,,---,0.00,VWS V14.01,2013-02-15 10:05:00,
2013-02-15 02:10:00,43.4,42.6,30.55,East,80,0.0,0.0,97,0.00,,---,0.00,VWS V14.01,2013-02-15 10:10:00,
2013-02-15 02:15:00,43.5,43.0,30.55,East,80,0.0,0.0,98,0.00,,---,0.00,VWS V14.01,2013-02-15 10:15:00,
2013-02-15 02:20:00,43.4,42.6,30.55,East,80,0.0,0.0,97,0.00,,---,0.00,VWS V14.01,2013-02-15 10:20:00,
2013-02-15 02:25:00,43.4,42.6,30.55,East,80,0.0,0.0,97,0.00,,---,0.00,VWS V14.01,2013-02-15 10:25:00,
2013-02-15 02:30:00,43.4,42.6,30.55,East,80,0.0,0.0,97,0.00,,---,0.00,VWS V14.01,2013-02-15 10:30:00,
2013-02-15 02:35:00,43.4,42.9,30.55,WSW,257,0.0,0.0,98,0.00,,---,0.00,VWS V14.01,2013-02-15 10:35:00,
2013-02-15 02:40:00,43.4,42.9,30.55,WSW,257,0.0,0.0,98,0.00,,---,0.00,VWS V14.01,2013-02-15 10:40:00,
2013-02-15 02:45:00,43.4,42.9,30.54,WSW,257,0.0,0.0,98,0.00,,---,0.00,VWS V14.01,2013-02-15 10:45:00,
2013-02-15 02:50:00,43.4,42.9,30.54,NE,52,0.0,0.0,98,0.00,,---,0.00,VWS V14.01,2013-02-15 10:50:00,
2013-02-15 02:55:00,43.4,42.9,30.54,NE,52,0.0,0.0,98,0.00,,---,0.00,VWS V14.01,2013-02-15 10:55:00,
2013-02-15 03:00:00,43.4,42.9,30.54,NE,52,0.0,0.0,98,0.00,,---,0.00,VWS V14.01,2013-02-15 11:00:00,
2013-02-15 03:05:00,43.4,42.9,30.53,WNW,290,0.0,0.0,98,0.00,,---,0.00,VWS V14.01,2013-02-15 11:05:00,
2013-02-15 03:10:00,43.4,42.9,30.53,West,261,0.0,0.0,98,0.00,,---,0.00,VWS V14.01,2013-02-15 11:10:00,
2013-02-15 03:15:00,43.4,42.9,30.53,West,265,0.0,0.0,98,0.00,,---,0.00,VWS V14.01,2013-02-15 11:15:00,
2013-02-15 03:20:00,43.3,42.8,30.53,West,273,0.0,0.0,98,0.00,,---,0.00,VWS V14.01,2013-02-15 11:20:00,
2013-02-15 03:25:00,43.3,42.8,30.52,West,273,0.0,0.0,98,0.00,,---,0.00,VWS V14.01,2013-02-15 11:25:00,
2013-02-15 03:30:00,43.3,42.8,30.52,West,273,0.0,0.0,98,0.00,,---,0.00,VWS V14.01,2013-02-15 11:30:00,
2013-02-15 03:35:00,43.3,42.8,30.52,West,273,0.0,0.0,98,0.00,,---,0.00,VWS V14.01,2013-02-15 11:35:00,
2013-02-15 03:40:00,43.3,42.8,30.52,West,273,0.0,0.0,98,0.00,,---,0.00,VWS V14.01,2013-02-15 11:40:00,
2013-02-15 03:45:00,43.3,42.8,30.51,WSW,243,0.0,0.0,98,0.00,,---,0.00,VWS V14.01,2013-02-15 11:45:00,
2013-02-15 03:50:00,43.3,42.8,30.52,WSW,244,0.0,0.0,98,0.00,,---,0.00,VWS V14.01,2013-02-15 11:50:00,
2013-02-15 03:55:00,43.3,42.8,30.52,NNW,327,0.0,0.0,98,0.00,,---,0.00,VWS V14.01,2013-02-15 11:55:00,
2013-02-15 04:00:00,43.3,42.8,30.51,NW,309,0.0,0.0,98,0.00,,---,0.00,VWS V14.01,2013-02-15 12:00:00,
2013-02-15 04:05:00,43.2,42.7,30.51,NW,309,0.0,0.0,98,0.00,,---,0.00,VWS V14.01,2013-02-15 12:05:00,
2013-02-15 04:10:00,43.2,42.7,30.51,NW,316,0.0,0.0,98,0.00,,---,0.00,VWS V14.01,2013-02-15 12:10:00,
2013-02-15 04:15:00,43.2,42.7,30.51,NW,316,0.0,0.0,98,0.00,,---,0.00,VWS V14.01,2013-02-15 12:15:00,
2013-02-15 04:20:00,43.2,42.7,30.51,WNW,288,0.0,0.0,98,0.00,,---,0.00,VWS V14.01,2013-02-15 12:20:00,
2013-02-15 04:25:00,43.2,42.7,30.51,WNW,288,0.0,0.0,98,0.00,,---,0.00,VWS V14.01,2013-02-15 12:25:00,
2013-02-15 04:30:00,43.2,42.7,30.51,South,178,0.0,0.0,98,0.00,,---,0.00,VWS V14.01,2013-02-15 12:30:00,
2013-02-15 04:35:00,43.1,42.3,30.51,WSW,246,0.0,0.0,97,0.00,,---,0.00,VWS V14.01,2013-02-15 12:35:00,
2013-02-15 04:40:00,43.1,42.3,30.51,WSW,246,0.0,0.0,97,0.00,,---,0.00,VWS V14.01,2013-02-15 12:40:00,
2013-02-15 04:45:00,43.1,42.3,30.51,WSW,246,0.0,0.0,97,0.00,,---,0.00,VWS V14.01,2013-02-15 12:45:00,
2013-02-15 04:50:00,43.1,42.3,30.51,WSW,246,0.0,0.0,97,0.00,,---,0.00,VWS V14.01,2013-02-15 12:50:00,
2013-02-15 04:55:00,43.1,42.3,30.51,WSW,246,0.0,0.0,97,0.00,,---,0.00,VWS V14.01,2013-02-15 12:55:00,
2013-02-15 05:00:00,43.1,42.3,30.51,NW,311,0.0,0.0,97,0.00,,---,0.00,VWS V14.01,2013-02-15 13:00:00,
2013-02-15 05:05:00,43.1,42.3,30.51,NW,324,0.0,0.0,97,0.00,,---,0.00,VWS V14.01,2013-02-15 13:05:00,
2013-02-15 05:09:00,43.1,42.3,30.51,SW,233,0.0,0.0,97,0.00,,---,0.00,VWS V14.01,2013-02-15 13:09:00,
2013-02-15 05:14:00,43.1,42.3,30.50,WNW,298,0.0,0.0,97,0.00,,---,0.00,VWS V14.01,2013-02-15 13:14:00,
2013-02-15 05:19:00,43.0,42.2,30.50,NE,42,0.0,0.0,97,0.00,,---,0.00,VWS V14.01,2013-02-15 13:19:00,
2013-02-15 05:24:00,43.1,42.3,30.50,NE,34,0.0,4.0,97,0.00,,---,0.00,VWS V14.01,2013-02-15 13:24:00,
2013-02-15 05:29:00,43.0,42.2,30.50,NW,317,1.0,4.0,97,0.00,,---,0.00,VWS V14.01,2013-02-15 13:29:00,
2013-02-15 05:34:00,43.0,42.2,30.50,NE,34,0.0,3.0,97,0.00,,---,0.00,VWS V14.01,2013-02-15 13:34:00,
2013-02-15 05:39:00,43.0,42.2,30.50,NE,42,3.0,4.0,97,0.00,,---,0.00,VWS V14.01,2013-02-15 13:39:00,
2013-02-15 05:44:00,43.0,42.2,30.50,NE,46,3.0,4.0,97,0.00,,---,0.00,VWS V14.01,2013-02-15 13:44:00,
2013-02-15 05:49:00,43.0,42.2,30.50,NNE,25,1.0,4.0,97,0.00,,---,0.00,VWS V14.01,2013-02-15 13:49:00,
2013-02-15 05:54:00,43.0,42.2,30.50,WSW,244,1.0,4.0,97,0.00,,---,0.00,VWS V14.01,2013-02-15 13:54:00,
2013-02-15 05:59:00,43.0,42.2,30.50,ESE,102,2.0,4.0,97,0.00,,---,0.00,VWS V14.01,2013-02-15 13:59:00,
2013-02-15 06:04:00,43.0,42.2,30.50,ESE,119,0.0,1.0,97,0.00,,---,0.00,VWS V14.01,2013-02-15 14:04:00,
2013-02-15 06:09:00,43.0,42.2,30.50,NE,38,1.0,2.0,97,0.00,,---,0.00,VWS V14.01,2013-02-15 14:09:00,
2013-02-15 06:14:00,43.0,42.2,30.50,ENE,71,2.0,3.0,97,0.00,,---,0.00,VWS V14.01,2013-02-15 14:14:00,
2013-02-15 06:19:00,43.1,42.3,30.49,East,82,0.0,0.0,97,0.00,,---,0.00,VWS V14.01,2013-02-15 14:19:00,
2013-02-15 06:24:00,43.0,42.2,30.49,East,97,1.0,3.0,97,0.00,,---,0.00,VWS V14.01,2013-02-15 14:24:00,
2013-02-15 06:29:00,43.0,42.2,30.49,SSE,162,1.0,3.0,97,0.00,,---,0.00,VWS V14.01,2013-02-15 14:29:00,
2013-02-15 06:34:00,43.0,42.2,30.49,East,84,2.0,2.0,97,0.00,,---,0.00,VWS V14.01,2013-02-15 14:34:00,
2013-02-15 06:39:00,43.0,42.2,30.49,North,5,1.0,4.0,97,0.00,,---,0.00,VWS V14.01,2013-02-15 14:39:00,
2013-02-15 06:44:00,43.1,42.3,30.49,ENE,60,1.0,4.0,97,0.00,,---,0.00,VWS V14.01,2013-02-15 14:44:00,
2013-02-15 06:49:00,43.1,42.3,30.48,ENE,59,0.0,2.0,97,0.00,,---,0.00,VWS V14.01,2013-02-15 14:49:00,
2013-02-15 06:54:00,43.1,42.3,30.48,NW,313,1.0,4.0,97,0.00,,---,0.00,VWS V14.01,2013-02-15 14:54:00,
2013-02-15 06:59:00,43.1,42.3,30.48,WSW,243,0.0,4.0,97,0.00,,---,0.00,VWS V14.01,2013-02-15 14:59:00,
2013-02-15 07:04:00,43.1,42.3,30.48,WNW,295,0.0,1.0,97,0.00,,---,0.00,VWS V14.01,2013-02-15 15:04:00,
2013-02-15 07:09:00,43.0,42.2,30.48,NNW,333,1.0,1.0,97,0.00,,---,0.00,VWS V14.01,2013-02-15 15:09:00,
2013-02-15 07:14:00,43.0,42.2,30.48,SE,142,1.0,2.0,97,0.00,,---,0.00,VWS V14.01,2013-02-15 15:14:00,
2013-02-15 07:19:00,42.9,42.1,30.48,NE,44,1.0,5.0,97,0.00,,---,0.00,VWS V14.01,2013-02-15 15:19:00,
2013-02-15 07:24:00,42.8,42.0,30.48,SSW,205,0.0,5.0,97,0.00,,---,0.00,VWS V14.01,2013-02-15 15:24:00,
2013-02-15 07:29:00,42.8,42.0,30.48,NW,316,1.0,5.0,97,0.00,,---,0.00,VWS V14.01,2013-02-15 15:29:00,
2013-02-15 07:34:00,42.7,41.9,30.48,East,101,0.0,3.0,97,0.00,,---,0.00,VWS V14.01,2013-02-15 15:34:00,
2013-02-15 07:39:00,42.7,41.9,30.48,SE,144,1.0,3.0,97,0.00,,---,0.00,VWS V14.01,2013-02-15 15:39:00,
2013-02-15 07:44:00,42.5,41.7,30.48,NE,48,0.0,3.0,97,0.00,,---,0.00,VWS V14.01,2013-02-15 15:44:00,
2013-02-15 07:49:00,42.4,41.6,30.48,NE,48,0.0,1.0,97,0.00,,---,0.00,VWS V14.01,2013-02-15 15:49:00,
2013-02-15 07:54:00,42.3,41.5,30.48,ENE,77,0.0,1.0,97,0.00,,---,0.00,VWS V14.01,2013-02-15 15:54:00,
2013-02-15 07:59:00,42.2,41.4,30.48,WSW,256,2.0,2.0,97,0.00,,---,0.00,VWS V14.01,2013-02-15 15:59:00,
2013-02-15 08:04:00,42.1,41.3,30.48,SW,236,1.0,1.0,97,0.00,,---,0.00,VWS V14.01,2013-02-15 16:04:00,
2013-02-15 08:09:00,42.1,41.3,30.48,SSE,158,2.0,3.0,97,0.00,,---,0.00,VWS V14.01,2013-02-15 16:09:00,
2013-02-15 08:14:00,42.2,41.4,30.48,East,84,1.0,3.0,97,0.00,,---,0.00,VWS V14.01,2013-02-15 16:14:00,
2013-02-15 08:19:00,42.3,41.5,30.48,ENE,57,1.0,3.0,97,0.00,,---,0.00,VWS V14.01,2013-02-15 16:19:00,
2013-02-15 08:24:00,42.4,41.6,30.48,ENE,58,0.0,3.0,97,0.00,,---,0.00,VWS V14.01,2013-02-15 16:24:00,
2013-02-15 08:29:00,42.5,41.7,30.48,East,82,0.0,3.0,97,0.00,,---,0.00,VWS V14.01,2013-02-15 16:29:00,
2013-02-15 08:34:00,42.6,41.8,30.48,East,82,0.0,2.0,97,0.00,,---,0.00,VWS V14.01,2013-02-15 16:34:00,
2013-02-15 08:39:00,42.8,42.0,30.48,NE,46,0.0,4.0,97,0.00,,---,0.00,VWS V14.01,2013-02-15 16:39:00,
2013-02-15 08:44:00,42.9,42.1,30.48,NNW,344,0.0,4.0,97,0.00,,---,0.00,VWS V14.01,2013-02-15 16:44:00,
2013-02-15 08:49:00,43.1,42.3,30.48,SE,127,0.0,5.0,97,0.00,,---,0.00,VWS V14.01,2013-02-15 16:49:00,
2013-02-15 08:54:00,43.1,42.0,30.48,East,85,3.0,7.0,96,0.00,,---,0.00,VWS V14.01,2013-02-15 16:54:00,
2013-02-15 08:59:00,43.2,42.1,30.47,NNE,24,0.0,7.0,96,0.00,,---,0.00,VWS V14.01,2013-02-15 16:59:00,
2013-02-15 09:04:00,43.3,42.2,30.47,NE,45,3.0,5.0,96,0.00,,---,0.00,VWS V14.01,2013-02-15 17:04:00,
2013-02-15 09:09:00,43.4,42.3,30.47,NE,36,4.0,5.0,96,0.00,,---,0.00,VWS V14.01,2013-02-15 17:09:00,
2013-02-15 09:14:00,43.5,42.4,30.47,NE,51,5.0,6.0,96,0.00,,---,0.00,VWS V14.01,2013-02-15 17:14:00,
2013-02-15 09:19:00,43.5,42.2,30.47,East,80,2.0,7.0,95,0.00,,---,0.00,VWS V14.01,2013-02-15 17:19:00,
2013-02-15 09:24:00,43.6,42.3,30.47,ESE,112,0.0,7.0,95,0.00,,---,0.00,VWS V14.01,2013-02-15 17:24:00,
2013-02-15 09:29:00,43.7,42.6,30.47,NNW,335,0.0,7.0,96,0.00,,---,0.00,VWS V14.01,2013-02-15 17:29:00,
2013-02-15 09:34:00,43.8,42.5,30.47,West,273,3.0,3.0,95,0.00,,---,0.00,VWS V14.01,2013-02-15 17:34:00,
2013-02-15 09:39:00,43.8,42.5,30.47,NE,36,1.0,3.0,95,0.00,,---,0.00,VWS V14.01,2013-02-15 17:39:00,
2013-02-15 09:44:00,43.9,42.6,30.47,NNE,23,1.0,6.0,95,0.00,,---,0.00,VWS V14.01,2013-02-15 17:44:00,
2013-02-15 09:49:00,44.1,42.8,30.46,West,281,1.0,2.0,95,0.00,,---,0.00,VWS V14.01,2013-02-15 17:49:00,
2013-02-15 09:54:00,44.5,42.9,30.47,SSE,157,1.0,5.0,94,0.00,,---,0.00,VWS V14.01,2013-02-15 17:54:00,
2013-02-15 09:59:00,44.8,43.2,30.46,NE,34,3.0,5.0,94,0.00,,---,0.00,VWS V14.01,2013-02-15 17:59:00,
2013-02-15 10:04:00,45.0,43.1,30.46,NE,46,3.0,3.0,93,0.00,,---,0.00,VWS V14.01,2013-02-15 18:04:00,
2013-02-15 10:09:00,45.3,43.4,30.46,West,266,1.0,5.0,93,0.00,,---,0.00,VWS V14.01,2013-02-15 18:09:00,
2013-02-15 10:14:00,45.4,42.9,30.45,ESE,105,0.0,5.0,91,0.00,,---,0.00,VWS V14.01,2013-02-15 18:14:00,
2013-02-15 10:19:00,45.5,43.0,30.45,WSW,254,0.0,2.0,91,0.00,,---,0.00,VWS V14.01,2013-02-15 18:19:00,
2013-02-15 10:24:00,45.7,43.2,30.45,WNW,301,4.0,7.0,91,0.00,,---,0.00,VWS V14.01,2013-02-15 18:24:00,
2013-02-15 10:29:00,45.7,42.9,30.45,SSE,163,1.0,7.0,90,0.00,,---,0.00,VWS V14.01,2013-02-15 18:29:00,
2013-02-15 10:34:00,45.7,42.7,30.45,West,273,5.0,5.0,89,0.00,,---,0.00,VWS V14.01,2013-02-15 18:34:00,
2013-02-15 10:39:00,45.6,42.5,30.45,WSW,253,2.0,5.0,89,0.00,,---,0.00,VWS V14.01,2013-02-15 18:39:00,
2013-02-15 10:44:00,45.6,42.5,30.45,WSW,242,0.0,6.0,89,0.00,,---,0.00,VWS V14.01,2013-02-15 18:44:00,
2013-02-15 10:49:00,45.8,42.8,30.45,NW,320,0.0,5.0,89,0.00,,---,0.00,VWS V14.01,2013-02-15 18:49:00,
2013-02-15 10:54:00,46.0,42.7,30.45,SSW,196,3.0,8.0,88,0.00,,---,0.00,VWS V14.01,2013-02-15 18:54:00,
2013-02-15 10:59:00,46.0,42.7,30.44,ENE,69,0.0,8.0,88,0.00,,---,0.00,VWS V14.01,2013-02-15 18:59:00,
2013-02-15 11:04:00,46.1,42.8,30.44,SW,217,1.0,4.0,88,0.00,,---,0.00,VWS V14.01,2013-02-15 19:04:00,
2013-02-15 11:09:00,46.4,43.0,30.44,ESE,119,2.0,5.0,88,0.00,,---,0.00,VWS V14.01,2013-02-15 19:09:00,
2013-02-15 11:14:00,46.5,42.8,30.44,WNW,289,1.0,10.0,87,0.00,,---,0.00,VWS V14.01,2013-02-15 19:14:00,
2013-02-15 11:19:00,46.4,42.5,30.43,SSE,153,0.0,6.0,86,0.00,,---,0.00,VWS V14.01,2013-02-15 19:19:00,
2013-02-15 11:24:00,46.5,42.8,30.43,NE,42,0.0,6.0,87,0.00,,---,0.00,VWS V14.01,2013-02-15 19:24:00,
2013-02-15 11:29:00,46.8,42.8,30.43,WNW,296,0.0,7.0,86,0.00,,---,0.00,VWS V14.01,2013-02-15 19:29:00,
2013-02-15 11:34:00,47.0,43.0,30.43,SE,126,0.0,5.0,86,0.00,,---,0.00,VWS V14.01,2013-02-15 19:34:00,
2013-02-15 11:39:00,47.3,43.0,30.42,NE,40,4.0,5.0,85,0.00,,---,0.00,VWS V14.01,2013-02-15 19:39:00,
2013-02-15 11:44:00,47.4,42.8,30.42,WSW,240,6.0,6.0,84,0.00,,---,0.00,VWS V14.01,2013-02-15 19:44:00,
2013-02-15 11:49:00,47.5,42.9,30.42,East,99,1.0,3.0,84,0.00,,---,0.00,VWS V14.01,2013-02-15 19:49:00,
2013-02-15 11:54:00,47.7,42.8,30.42,West,272,2.0,7.0,83,0.00,,---,0.00,VWS V14.01,2013-02-15 19:54:00,
2013-02-15 11:59:00,47.8,42.9,30.42,NE,34,2.0,7.0,83,0.00,,---,0.00,VWS V14.01,2013-02-15 19:59:00,
2013-02-15 12:04:00,47.9,43.0,30.41,WNW,300,1.0,5.0,83,0.00,,---,0.00,VWS V14.01,2013-02-15 20:04:00,
2013-02-15 12:09:00,48.2,43.3,30.41,ENE,66,0.0,6.0,83,0.00,,---,0.00,VWS V14.01,2013-02-15 20:09:00,
2013-02-15 12:14:00,48.5,43.3,30.41,East,101,0.0,6.0,82,0.00,,---,0.00,VWS V14.01,2013-02-15 20:14:00,
2013-02-15 12:19:00,48.7,43.5,30.40,SW,234,3.0,6.0,82,0.00,,---,0.00,VWS V14.01,2013-02-15 20:19:00,
2013-02-15 12:24:00,48.8,43.6,30.40,NE,37,0.0,6.0,82,0.00,,---,0.00,VWS V14.01,2013-02-15 20:24:00,
2013-02-15 12:29:00,48.9,43.0,30.39,WSW,250,4.0,8.0,80,0.00,,---,0.00,VWS V14.01,2013-02-15 20:29:00,
2013-02-15 12:34:00,49.0,43.1,30.39,WSW,252,1.0,6.0,80,0.00,,---,0.00,VWS V14.01,2013-02-15 20:34:00,
2013-02-15 12:39:00,49.0,43.1,30.39,WSW,238,1.0,8.0,80,0.00,,---,0.00,VWS V14.01,2013-02-15 20:39:00,
2013-02-15 12:44:00,49.2,43.3,30.38,NE,49,0.0,8.0,80,0.00,,---,0.00,VWS V14.01,2013-02-15 20:44:00,
2013-02-15 12:49:00,49.3,43.1,30.38,ENE,66,7.0,7.0,79,0.00,,---,0.00,VWS V14.01,2013-02-15 20:49:00,
2013-02-15 12:54:00,49.3,43.1,30.38,NNW,338,2.0,8.0,79,0.00,,---,0.00,VWS V14.01,2013-02-15 20:54:00,
2013-02-15 12:59:00,49.3,43.1,30.38,NW,315,1.0,8.0,79,0.00,,---,0.00,VWS V14.01,2013-02-15 20:59:00,
2013-02-15 13:04:00,49.5,43.3,30.37,West,273,8.0,8.0,79,0.00,,---,0.00,VWS V14.01,2013-02-15 21:04:00,
2013-02-15 13:09:00,49.4,43.2,30.37,West,275,2.0,9.0,79,0.00,,---,0.00,VWS V14.01,2013-02-15 21:09:00,
2013-02-15 13:14:00,49.7,43.5,30.37,North,11,2.0,9.0,79,0.00,,---,0.00,VWS V14.01,2013-02-15 21:14:00,
2013-02-15 13:19:00,49.7,43.1,30.37,NNE,18,0.0,4.0,78,0.00,,---,0.00,VWS V14.01,2013-02-15 21:19:00,
2013-02-15 13:24:00,49.7,43.1,30.36,West,281,0.0,8.0,78,0.00,,---,0.00,VWS V14.01,2013-02-15 21:24:00,
2013-02-15 13:29:00,49.9,43.3,30.36,WSW,239,5.0,8.0,78,0.00,,---,0.00,VWS V14.01,2013-02-15 21:29:00,
2013-02-15 13:34:00,50.0,43.4,30.36,SSE,163,0.0,5.0,78,0.00,,---,0.00,VWS V14.01,2013-02-15 21:34:00,
2013-02-15 13:39:00,50.3,43.7,30.36,WSW,252,5.0,6.0,78,0.00,,---,0.00,VWS V14.01,2013-02-15 21:39:00,
2013-02-15 13:44:00,50.3,43.0,30.36,WSW,247,4.0,9.0,76,0.00,,---,0.00,VWS V14.01,2013-02-15 21:44:00,
2013-02-15 13:49:00,50.3,43.4,30.35,SSE,165,1.0,8.0,77,0.00,,---,0.00,VWS V14.01,2013-02-15 21:49:00,
2013-02-15 13:54:00,50.5,43.2,30.35,WSW,246,4.0,8.0,76,0.00,,---,0.00,VWS V14.01,2013-02-15 21:54:00,
2013-02-15 13:59:00,50.6,43.3,30.34,SSW,207,0.0,8.0,76,0.00,,---,0.00,VWS V14.01,2013-02-15 21:59:00,
2013-02-15 14:04:00,50.9,43.3,30.34,North,360,2.0,6.0,75,0.00,,---,0.00,VWS V14.01,2013-02-15 22:04:00,
2013-02-15 14:09:00,51.0,43.4,30.34,NW,322,0.0,6.0,75,0.00,,---,0.00,VWS V14.01,2013-02-15 22:09:00,
2013-02-15 14:14:00,51.0,43.4,30.33,NE,40,4.0,7.0,75,0.00,,---,0.00,VWS V14.01,2013-02-15 22:14:00,
2013-02-15 14:19:00,50.6,43.0,30.33,East,82,2.0,9.0,75,0.00,,---,0.00,VWS V14.01,2013-02-15 22:19:00,
2013-02-15 14:24:00,50.7,43.1,30.33,NE,44,0.0,9.0,75,0.00,,---,0.00,VWS V14.01,2013-02-15 22:24:00,
2013-02-15 14:29:00,50.8,43.2,30.33,NE,47,2.0,9.0,75,0.00,,---,0.00,VWS V14.01,2013-02-15 22:29:00,
2013-02-15 14:34:00,50.8,43.2,30.32,West,266,2.0,7.0,75,0.00,,---,0.00,VWS V14.01,2013-02-15 22:34:00,
2013-02-15 14:39:00,51.1,43.5,30.32,SW,234,2.0,7.0,75,0.00,,---,0.00,VWS V14.01,2013-02-15 22:39:00,
2013-02-15 14:44:00,51.7,43.3,30.32,SSE,157,0.0,7.0,73,0.00,,---,0.00,VWS V14.01,2013-02-15 22:44:00,
2013-02-15 14:49:00,52.0,44.0,30.32,WSW,248,4.0,4.0,74,0.00,,---,0.00,VWS V14.01,2013-02-15 22:49:00,
2013-02-15 14:54:00,52.3,43.2,30.32,West,261,3.0,6.0,71,0.00,,---,0.00,VWS V14.01,2013-02-15 22:54:00,
2013-02-15 14:59:00,52.4,42.9,30.32,NE,46,1.0,6.0,70,0.00,,---,0.00,VWS V14.01,2013-02-15 22:59:00,
2013-02-15 15:04:00,52.5,43.0,30.31,WSW,256,3.0,5.0,70,0.00,,---,0.00,VWS V14.01,2013-02-15 23:04:00,
2013-02-15 15:09:00,52.9,43.0,30.31,ENE,76,1.0,5.0,69,0.00,,---,0.00,VWS V14.01,2013-02-15 23:09:00,
2013-02-15 15:14:00,53.3,43.4,30.31,NE,50,1.0,5.0,69,0.00,,---,0.00,VWS V14.01,2013-02-15 23:14:00,
2013-02-15 15:19:00,53.4,42.7,30.31,ENE,59,3.0,6.0,67,0.00,,---,0.00,VWS V14.01,2013-02-15 23:19:00,
2013-02-15 15:24:00,53.5,43.2,30.31,North,355,4.0,7.0,68,0.00,,---,0.00,VWS V14.01,2013-02-15 23:24:00,
2013-02-15 15:29:00,53.7,43.4,30.31,ENE,72,0.0,7.0,68,0.00,,---,0.00,VWS V14.01,2013-02-15 23:29:00,
2013-02-15 15:34:00,53.3,43.0,30.31,NE,47,2.0,5.0,68,0.00,,---,0.00,VWS V14.01,2013-02-15 23:34:00,
2013-02-15 15:39:00,52.8,42.9,30.30,NNW,327,1.0,5.0,69,0.00,,---,0.00,VWS V14.01,2013-02-15 23:39:00,
2013-02-15 15:44:00,52.5,42.6,30.30,ENE,57,3.0,6.0,69,0.00,,---,0.00,VWS V14.01,2013-02-15 23:44:00,
2013-02-15 15:49:00,52.2,43.1,30.30,NE,53,3.0,7.0,71,0.00,,---,0.00,VWS V14.01,2013-02-15 23:49:00,
2013-02-15 15:54:00,52.3,43.9,30.30,NE,39,2.0,7.0,73,0.00,,---,0.00,VWS V14.01,2013-02-15 23:54:00,
2013-02-15 15:59:00,52.7,43.9,30.29,NE,51,0.0,7.0,72,0.00,,---,0.00,VWS V14.01,2013-02-15 23:59:00,
2013-02-15 16:04:00,52.7,43.6,30.30,NE,40,2.0,3.0,71,0.00,,---,0.00,VWS V14.01,2013-02-16 00:04:00,
2013-02-15 16:09:00,52.8,44.0,30.29,West,269,2.0,5.0,72,0.00,,---,0.00,VWS V14.01,2013-02-16 00:09:00,
2013-02-15 16:14:00,52.9,44.1,30.29,NE,49,0.0,5.0,72,0.00,,---,0.00,VWS V14.01,2013-02-16 00:14:00,
2013-02-15 16:19:00,53.2,44.4,30.29,NE,34,0.0,2.0,72,0.00,,---,0.00,VWS V14.01,2013-02-16 00:19:00,
2013-02-15 16:24:00,52.8,44.0,30.28,NE,53,1.0,5.0,72,0.00,,---,0.00,VWS V14.01,2013-02-16 00:24:00,
2013-02-15 16:29:00,52.3,43.9,30.28,NNE,32,0.0,5.0,73,0.00,,---,0.00,VWS V14.01,2013-02-16 00:29:00,
2013-02-15 16:34:00,52.2,44.5,30.28,West,273,3.0,4.0,75,0.00,,---,0.00,VWS V14.01,2013-02-16 00:34:00,
2013-02-15 16:39:00,52.0,44.0,30.28,ENE,78,0.0,4.0,74,0.00,,---,0.00,VWS V14.01,2013-02-16 00:39:00,
2013-02-15 16:44:00,51.8,44.1,30.28,WNW,291,1.0,5.0,75,0.00,,---,0.00,VWS V14.01,2013-02-16 00:44:00,
2013-02-15 16:49:00,51.4,43.8,30.28,SE,141,1.0,3.0,75,0.00,,---,0.00,VWS V14.01,2013-02-16 00:49:00,
2013-02-15 16:54:00,50.8,43.5,30.28,NNE,31,0.0,4.0,76,0.00,,---,0.00,VWS V14.01,2013-02-16 00:54:00,
2013-02-15 16:59:00,50.4,43.1,30.28,NE,34,0.0,4.0,76,0.00,,---,0.00,VWS V14.01,2013-02-16 00:59:00,
2013-02-15 17:04:00,50.2,42.9,30.27,ENE,71,1.0,3.0,76,0.00,,---,0.00,VWS V14.01,2013-02-16 01:04:00,
2013-02-15 17:09:00,49.8,43.2,30.27,NE,50,1.0,3.0,78,0.00,,---,0.00,VWS V14.01,2013-02-16 01:09:00,
2013-02-15 17:14:00,49.4,43.2,30.27,NNW,335,0.0,3.0,79,0.00,,---,0.00,VWS V14.01,2013-02-16 01:14:00,
2013-02-15 17:19:00,48.9,42.7,30.27,ESE,105,0.0,2.0,79,0.00,,---,0.00,VWS V14.01,2013-02-16 01:19:00,
2013-02-15 17:24:00,48.1,42.5,30.27,East,95,0.0,3.0,81,0.00,,---,0.00,VWS V14.01,2013-02-16 01:24:00,
2013-02-15 17:29:00,47.4,42.5,30.26,ENE,69,2.0,3.0,83,0.00,,---,0.00,VWS V14.01,2013-02-16 01:29:00,
2013-02-15 17:34:00,46.8,42.2,30.26,NNW,331,0.0,4.0,84,0.00,,---,0.00,VWS V14.01,2013-02-16 01:34:00,
2013-02-15 17:39:00,46.1,41.8,30.26,ESE,104,0.0,4.0,85,0.00,,---,0.00,VWS V14.01,2013-02-16 01:39:00,
2013-02-15 17:44:00,45.8,41.5,30.26,ESE,118,0.0,4.0,85,0.00,,---,0.00,VWS V14.01,2013-02-16 01:44:00,
2013-02-15 17:49:00,45.6,41.7,30.26,NE,43,0.0,2.0,86,0.00,,---,0.00,VWS V14.01,2013-02-16 01:49:00,
2013-02-15 17:54:00,45.4,41.5,30.25,NE,43,0.0,2.0,86,0.00,,---,0.00,VWS V14.01,2013-02-16 01:54:00,
2013-02-15 17:59:00,45.1,41.5,30.25,ENE,61,1.0,2.0,87,0.00,,---,0.00,VWS V14.01,2013-02-16 01:59:00,
2013-02-15 18:04:00,44.7,41.4,30.25,East,82,0.0,2.0,88,0.00,,---,0.00,VWS V14.01,2013-02-16 02:04:00,
2013-02-15 18:09:00,44.4,41.1,30.25,East,95,1.0,2.0,88,0.00,,---,0.00,VWS V14.01,2013-02-16 02:09:00,
2013-02-15 18:14:00,44.1,41.1,30.25,NE,54,0.0,3.0,89,0.00,,---,0.00,VWS V14.01,2013-02-16 02:14:00,
2013-02-15 18:19:00,43.9,40.9,30.25,NE,37,0.0,0.0,89,0.00,,---,0.00,VWS V14.01,2013-02-16 02:19:00,
2013-02-15 18:24:00,43.7,40.7,30.25,NE,37,0.0,1.0,89,0.00,,---,0.00,VWS V14.01,2013-02-16 02:24:00,
2013-02-15 18:29:00,43.6,40.9,30.25,NE,38,0.0,1.0,90,0.00,,---,0.00,VWS V14.01,2013-02-16 02:29:00,
2013-02-15 18:34:00,43.5,40.8,30.25,NE,38,0.0,1.0,90,0.00,,---,0.00,VWS V14.01,2013-02-16 02:34:00,
2013-02-15 18:39:00,43.3,40.6,30.25,NE,38,0.0,1.0,90,0.00,,---,0.00,VWS V14.01,2013-02-16 02:39:00,
2013-02-15 18:44:00,43.1,40.4,30.25,NE,38,0.0,1.0,90,0.00,,---,0.00,VWS V14.01,2013-02-16 02:44:00,
2013-02-15 18:49:00,42.8,40.4,30.24,NE,38,0.0,0.0,91,0.00,,---,0.00,VWS V14.01,2013-02-16 02:49:00,
2013-02-15 18:54:00,42.6,40.2,30.24,NE,38,0.0,0.0,91,0.00,,---,0.00,VWS V14.01,2013-02-16 02:54:00,
2013-02-15 18:59:00,42.4,40.0,30.24,ENE,69,0.0,1.0,91,0.00,,---,0.00,VWS V14.01,2013-02-16 02:59:00,
2013-02-15 19:04:00,42.2,39.8,30.24,ENE,69,0.0,0.0,91,0.00,,---,0.00,VWS V14.01,2013-02-16 03:04:00,
2013-02-15 19:09:00,42.1,40.0,30.24,ENE,69,0.0,0.0,92,0.00,,---,0.00,VWS V14.01,2013-02-16 03:09:00,
2013-02-15 19:14:00,42.0,39.8,30.24,NNE,32,0.0,0.0,92,0.00,,---,0.00,VWS V14.01,2013-02-16 03:14:00,
2013-02-15 19:19:00,41.9,39.8,30.24,NNE,32,0.0,0.0,92,0.00,,---,0.00,VWS V14.01,2013-02-16 03:19:00,
2013-02-15 19:24:00,41.8,39.7,30.24,NNW,327,0.0,1.0,92,0.00,,---,0.00,VWS V14.01,2013-02-16 03:24:00,
2013-02-15 19:29:00,41.6,39.5,30.24,NNW,327,0.0,1.0,92,0.00,,---,0.00,VWS V14.01,2013-02-16 03:29:00,
2013-02-15 19:34:00,41.6,39.7,30.24,NNW,327,0.0,0.0,93,0.00,,---,0.00,VWS V14.01,2013-02-16 03:34:00,
2013-02-15 19:39:00,41.5,39.6,30.24,NNW,327,0.0,0.0,93,0.00,,---,0.00,VWS V14.01,2013-02-16 03:39:00,
2013-02-15 19:44:00,41.5,39.6,30.24,NW,323,0.0,1.0,93,0.00,,---,0.00,VWS V14.01,2013-02-16 03:44:00,
2013-02-15 19:49:00,41.4,39.5,30.24,NNW,339,0.0,1.0,93,0.00,,---,0.00,VWS V14.01,2013-02-16 03:49:00,
2013-02-15 19:54:00,41.2,39.3,30.23,NE,43,0.0,2.0,93,0.00,,---,0.00,VWS V14.01,2013-02-16 03:54:00,
2013-02-15 19:59:00,40.9,39.0,30.23,NE,51,0.0,2.0,93,0.00,,---,0.00,VWS V14.01,2013-02-16 03:59:00,
2013-02-15 20:04:00,40.7,38.8,30.23,NE,51,0.0,0.0,93,0.00,,---,0.00,VWS V14.01,2013-02-16 04:04:00,
2013-02-15 20:09:00,40.7,39.1,30.23,NE,51,0.0,0.0,94,0.00,,---,0.00,VWS V14.01,2013-02-16 04:09:00,
2013-02-15 20:14:00,40.6,39.0,30.23,NE,51,0.0,0.0,94,0.00,,---,0.00,VWS V14.01,2013-02-16 04:14:00,
2013-02-15 20:19:00,40.6,39.0,30.23,ENE,68,1.0,2.0,94,0.00,,---,0.00,VWS V14.01,2013-02-16 04:19:00,
2013-02-15 20:23:00,40.5,38.9,30.23,ENE,68,1.0,2.0,94,0.00,,---,0.00,VWS V14.01,2013-02-16 04:23:00,
2013-02-15 20:29:00,40.4,38.8,30.23,ENE,68,0.0,2.0,94,0.00,,---,0.00,VWS V14.01,2013-02-16 04:29:00,
2013-02-15 20:33:00,40.3,38.7,30.23,ENE,68,0.0,0.0,94,0.00,,---,0.00,VWS V14.01,2013-02-16 04:33:00,
2013-02-15 20:38:00,40.3,39.0,30.23,ENE,68,0.0,0.0,95,0.00,,---,0.00,VWS V14.01,2013-02-16 04:38:00,
2013-02-15 20:43:00,40.4,39.1,30.23,ENE,68,0.0,1.0,95,0.00,,---,0.00,VWS V14.01,2013-02-16 04:43:00,
2013-02-15 20:48:00,40.4,39.1,30.23,ENE,73,1.0,2.0,95,0.00,,---,0.00,VWS V14.01,2013-02-16 04:48:00,
2013-02-15 20:53:00,40.6,39.3,30.23,East,80,0.0,2.0,95,0.00,,---,0.00,VWS V14.01,2013-02-16 04:53:00,
2013-02-15 20:59:00,40.6,39.3,30.23,East,80,0.0,2.0,95,0.00,,---,0.00,VWS V14.01,2013-02-16 04:59:00,
2013-02-15 21:00:00,40.6,39.3,30.23,East,80,0.0,2.0,95,0.00,,---,0.00,VWS V14.01,2013-02-16 05:00:00,
2013-02-15 21:05:00,40.4,38.8,30.23,East,80,0.0,0.0,94,0.00,,---,0.00,VWS V14.01,2013-02-16 05:05:00,
2013-02-15 21:10:00,40.3,39.0,30.23,East,80,0.0,0.0,95,0.00,,---,0.00,VWS V14.01,2013-02-16 05:10:00,
2013-02-15 21:15:00,40.3,39.0,30.23,East,80,0.0,0.0,95,0.00,,---,0.00,VWS V14.01,2013-02-16 05:15:00,
2013-02-15 21:20:00,40.3,39.0,30.23,East,80,0.0,0.0,95,0.00,,---,0.00,VWS V14.01,2013-02-16 05:20:00,
2013-02-15 21:23:00,40.4,39.1,30.23,East,80,0.0,0.0,95,0.00,,---,0.00,VWS V14.01,2013-02-16 05:23:00,
2013-02-15 21:28:00,40.4,39.1,30.23,East,80,0.0,0.0,95,0.00,,---,0.00,VWS V14.01,2013-02-16 05:28:00,
2013-02-15 21:33:00,40.3,39.0,30.23,East,80,0.0,0.0,95,0.00,,---,0.00,VWS V14.01,2013-02-16 05:33:00,
2013-02-15 21:38:00,40.1,38.8,30.23,East,80,0.0,0.0,95,0.00,,---,0.00,VWS V14.01,2013-02-16 05:38:00,
2013-02-15 21:43:00,39.9,38.6,30.23,East,80,0.0,0.0,95,0.00,,---,0.00,VWS V14.01,2013-02-16 05:43:00,
2013-02-15 21:48:00,39.8,38.5,30.23,East,80,0.0,0.0,95,0.00,,---,0.00,VWS V14.01,2013-02-16 05:48:00,
2013-02-15 21:53:00,39.7,38.4,30.23,East,80,0.0,0.0,95,0.00,,---,0.00,VWS V14.01,2013-02-16 05:53:00,
2013-02-15 21:58:00,39.6,38.3,30.23,East,80,0.0,0.0,95,0.00,,---,0.00,VWS V14.01,2013-02-16 05:58:00,
2013-02-15 22:03:00,39.4,38.1,30.23,East,80,0.0,0.0,95,0.00,,---,0.00,VWS V14.01,2013-02-16 06:03:00,
2013-02-15 22:08:00,39.1,37.8,30.22,ENE,73,0.0,0.0,95,0.00,,---,0.00,VWS V14.01,2013-02-16 06:08:00,
2013-02-15 22:13:00,38.9,37.6,30.22,ENE,73,0.0,0.0,95,0.00,,---,0.00,VWS V14.01,2013-02-16 06:13:00,
2013-02-15 22:18:00,38.8,37.5,30.22,ENE,73,0.0,0.0,95,0.00,,---,0.00,VWS V14.01,2013-02-16 06:18:00,
2013-02-15 22:23:00,38.6,37.3,30.22,ENE,73,0.0,0.0,95,0.00,,---,0.00,VWS V14.01,2013-02-16 06:23:00,
2013-02-15 22:28:00,38.3,37.0,30.22,ENE,73,0.0,0.0,95,0.00,,---,0.00,VWS V14.01,2013-02-16 06:28:00,
2013-02-15 22:33:00,38.3,37.0,30.23,ENE,73,0.0,0.0,95,0.00,,---,0.00,VWS V14.01,2013-02-16 06:33:00,
2013-02-15 22:38:00,38.2,37.2,30.22,ENE,73,0.0,0.0,96,0.00,,---,0.00,VWS V14.01,2013-02-16 06:38:00,
2013-02-15 22:43:00,38.2,37.2,30.22,ENE,73,0.0,0.0,96,0.00,,---,0.00,VWS V14.01,2013-02-16 06:43:00,
2013-02-15 22:48:00,38.0,37.0,30.21,ENE,74,0.0,0.0,96,0.00,,---,0.00,VWS V14.01,2013-02-16 06:48:00,
2013-02-15 22:53:00,38.0,37.0,30.21,ENE,74,0.0,2.0,96,0.00,,---,0.00,VWS V14.01,2013-02-16 06:53:00,
2013-02-15 22:58:00,37.9,36.9,30.21,ENE,74,0.0,2.0,96,0.00,,---,0.00,VWS V14.01,2013-02-16 06:58:00,
2013-02-15 23:03:00,38.1,37.1,30.20,ENE,74,0.0,0.0,96,0.00,,---,0.00,VWS V14.01,2013-02-16 07:03:00,
2013-02-15 23:08:00,38.1,37.1,30.20,ENE,74,0.0,0.0,96,0.00,,---,0.00,VWS V14.01,2013-02-16 07:08:00,
2013-02-15 23:13:00,38.1,37.1,30.20,ENE,74,0.0,0.0,96,0.00,,---,0.00,VWS V14.01,2013-02-16 07:13:00,
2013-02-15 23:18:00,38.0,37.0,30.20,ENE,74,0.0,0.0,96,0.00,,---,0.00,VWS V14.01,2013-02-16 07:18:00,
2013-02-15 23:23:00,37.9,36.9,30.20,ENE,74,0.0,0.0,96,0.00,,---,0.00,VWS V14.01,2013-02-16 07:23:00,
2013-02-15 23:28:00,37.8,36.8,30.20,ENE,74,0.0,0.0,96,0.00,,---,0.00,VWS V14.01,2013-02-16 07:28:00,
2013-02-15 23:33:00,37.8,36.8,30.19,ENE,74,0.0,0.0,96,0.00,,---,0.00,VWS V14.01,2013-02-16 07:33:00,
2013-02-15 23:38:00,37.6,36.6,30.19,ENE,74,0.0,0.0,96,0.00,,---,0.00,VWS V14.01,2013-02-16 07:38:00,
2013-02-15 23:43:00,37.4,36.4,30.19,ENE,74,0.0,0.0,96,0.00,,---,0.00,VWS V14.01,2013-02-16 07:43:00,
2013-02-15 23:48:00,37.3,36.3,30.19,ENE,74,0.0,0.0,96,0.00,,---,0.00,VWS V14.01,2013-02-16 07:48:00,
2013-02-15 23:53:00,37.3,36.3,30.19,ENE,74,0.0,0.0,96,0.00,,---,0.00,VWS V14.01,2013-02-16 07:53:00,
2013-02-15 23:58:00,37.1,36.1,30.18,ENE,74,0.0,0.0,96,0.00,,---,0.00,VWS V14.01,2013-02-16 07:58:00,